Wind_Speed
31 31 31 32 33 32 32 31 30 28 26 25 24 23 22 22 23 24 25 25 23 23 25 26 26 26 24 25 24 19 18 17
32 33 33 33 34 33 33 33 34 32 30 29 27 26 27 25 25 27 25 27 26 26 25 26 27 28 27 27 27 28 24 20
31 32 33 34 35 35 34 35 34 35 34 33 33 31 29 30 29 29 30 29 28 29 28 29 31 31 31 32 29 29 28 27
31 32 32 33 33 33 33 33 34 35 35 36 35 34 32 31 32 33 34 33 32 31 31 33 34 38 36 36 34 31 30 29
31 33 34 33 32 32 31 30 31 30 29 29 30 32 32 33 34 33 34 35 34 35 35 36 37 38 39 37 40 36 33 30
33 33 32 32 31 31 29 28 29 30 30 31 29 28 29 31 32 33 33 33 34 35 35 37 38 38 39 37 38 34 36 31
33 33 31 31 29 28 29 31 31 30 30 30 30 29 28 29 31 32 33 33 33 35 36 37 37 38 38 37 41 45 29 27
34 33 32 31 31 30 28 29 29 28 27 29 30 31 31 31 32 34 35 36 37 38 37 38 38 39 39 40 41 41 38 38
37 36 35 34 32 31 31 33 33 34 33 33 32 33 34 32 32 33 35 37 38 39 40 40 39 37 38 39 41 43 39 37
41 40 39 37 37 34 34 37 37 38 38 36 36 36 38 39 40 39 39 40 40 42 42 42 43 43 41 40 39 39 40 39
43 42 42 41 40 39 40 39 39 40 40 41 42 42 42 43 44 45 47 46 46 47 48 47 46 46 46 45 43 43 42 40
43 45 45 45 44 44 44 43 42 43 43 43 44 46 47 48 49 49 50 51 53 52 52 53 55 53 50 48 46 45 46 45
45 46 47 47 47 47 47 46 45 45 45 46 47 47 48 50 51 52 51 51 53 55 57 56 55 57 58 56 52 50 50 50
47 48 49 50 50 50 49 48 48 48 49 49 50 51 52 54 54 54 55 56 58 59 60 59 60 59 59 61 60 56 58 56
50 51 51 52 52 50 50 50 50 51 51 52 53 56 57 58 58 58 60 61 61 61 61 60 60 61 64 65 65 62 60 59
53 53 53 53 52 52 50 51 51 52 54 55 56 58 58 59 60 60 61 62 61 61 62 62 62 60 61 62 64 67 64 64
53 53 53 52 51 52 53 54 55 54 53 56 56 57 58 59 59 58 58 57 58 60 60 60 60 60 62 62 63 65 68 68
52 52 53 52 52 52 52 51 53 55 56 55 56 56 57 57 56 55 56 56 57 58 59 61 60 60 62 64 64 67 70 75
51 52 52 52 52 54 52 54 56 55 54 54 53 55 55 52 52 52 53 54 55 54 55 55 56 56 56 59 65 69 75 75
50 50 49 51 52 51 55 55 54 53 51 52 50 50 50 49 50 51 51 51 52 53 53 55 55 56 57 60 64 66 63 62
Wind_Direction
278 281 284 289 294 297 298 300 300 299 297 292 289 290 285 286 282 275 277 277 280 282 284 286 289 290 293 295 295 295 293 294
276 279 282 285 288 290 290 292 296 297 297 294 289 286 284 283 280 274 277 274 275 278 280 280 283 283 283 284 288 290 289 291
277 280 281 282 283 286 287 289 291 293 294 295 293 288 285 284 282 277 276 287 279 279 277 276 279 278 275 275 275 278 282 286
275 276 279 282 284 285 287 288 291 290 290 290 288 287 285 282 279 279 280 279 279 277 276 277 276 277 271 270 267 268 272 277
271 273 277 279 282 283 285 287 287 287 287 285 287 289 287 285 282 280 279 281 281 282 282 281 280 282 283 277 265 264 263 269
271 274 277 279 279 280 282 283 285 287 288 288 286 286 285 285 285 284 284 283 283 283 282 281 282 282 284 288 285 274 260 262
272 275 276 277 275 277 282 284 285 287 287 287 287 288 287 288 290 291 291 293 291 286 284 284 284 284 285 285 283 279 247 272
277 277 276 274 276 279 282 285 287 285 286 289 291 289 287 286 287 289 291 290 290 289 286 285 286 285 284 284 282 280 284 286
280 279 275 273 277 277 283 287 286 284 286 290 292 292 291 291 292 293 295 294 291 288 286 286 285 288 288 285 282 282 281 276
281 281 278 278 280 283 287 287 288 287 288 291 292 291 292 294 296 297 297 296 295 291 289 288 288 288 288 286 287 284 283 282
280 279 278 278 280 285 286 286 287 287 287 288 289 290 291 292 293 294 295 294 293 293 290 288 289 289 289 289 287 286 286 284
275 276 277 278 280 283 284 286 287 287 288 288 289 290 291 292 292 292 293 293 293 294 292 291 290 288 287 286 285 284 284 284
274 275 276 277 281 283 284 287 288 288 288 288 287 287 288 289 290 290 291 290 290 290 290 289 286 285 285 285 285 285 284 282
274 273 275 277 279 282 284 286 286 287 287 288 289 290 289 289 289 290 290 289 288 287 286 285 286 285 283 282 281 283 281 283
273 273 276 278 281 281 283 285 285 286 287 288 289 289 288 286 286 287 287 288 287 287 287 286 286 287 286 285 282 281 279 280
275 276 278 278 280 281 282 283 284 286 287 287 287 286 287 288 289 288 287 286 286 285 285 285 284 286 286 284 283 282 281 277
276 277 277 278 279 280 283 283 284 286 286 285 287 288 289 290 290 289 288 287 286 285 286 286 286 285 284 284 284 282 281 279
279 279 277 278 278 279 279 280 283 284 284 284 286 288 289 289 289 288 287 287 287 287 287 287 287 287 287 287 286 285 284 282
279 279 279 279 280 277 278 280 281 281 282 285 287 288 288 287 286 286 286 286 286 285 286 286 287 288 289 289 289 288 283 283
275 274 274 271 269 274 277 278 280 280 283 285 286 287 285 284 284 283 282 283 284 286 288 289 291 293 294 294 292 288 284 279
Height
5830 5829 5828 5827 5827 5826 5825 5823 5823 5823 5823 5823 5822 5822 5821 5822 5821 5820 5819 5819 5819 5819 5818 5817 5817 5817 5817 5816 5815 5815 5815 5815
5826 5825 5824 5824 5823 5822 5821 5820 5819 5819 5818 5818 5818 5817 5816 5817 5816 5814 5813 5813 5813 5814 5813 5813 5813 5812 5812 5811 5811 5810 5809 5810
5822 5821 5819 5819 5818 5818 5817 5816 5815 5814 5813 5813 5813 5812 5812 5810 5812 5809 5807 5806 5808 5809 5808 5808 5807 5807 5806 5805 5805 5804 5804 5804
5817 5816 5815 5814 5813 5812 5812 5811 5810 5809 5808 5807 5806 5805 5805 5804 5804 5804 5803 5802 5802 5802 5802 5802 5801 5800 5800 5799 5798 5797 5798 5798
5812 5811 5810 5809 5808 5807 5806 5805 5804 5804 5803 5801 5800 5799 5798 5797 5797 5797 5796 5796 5796 5795 5794 5794 5793 5793 5792 5790 5793 5791 5789 5790
5806 5805 5804 5803 5802 5801 5800 5799 5798 5798 5797 5795 5794 5794 5793 5791 5790 5789 5789 5789 5789 5788 5788 5786 5785 5784 5784 5784 5782 5779 5780 5779
5800 5800 5798 5798 5797 5795 5794 5793 5791 5790 5790 5789 5787 5787 5786 5785 5784 5783 5782 5782 5783 5781 5779 5778 5778 5777 5777 5777 5772 5768 5756 5774
5794 5793 5792 5791 5790 5789 5788 5786 5785 5784 5783 5783 5781 5780 5780 5779 5778 5777 5775 5775 5773 5773 5772 5771 5769 5768 5768 5768 5765 5763 5763 5759
5786 5786 5785 5784 5783 5782 5781 5780 5777 5777 5776 5775 5773 5772 5770 5770 5769 5768 5767 5765 5765 5763 5762 5762 5761 5760 5759 5759 5759 5755 5757 5760
5778 5778 5777 5777 5777 5774 5772 5772 5770 5768 5767 5766 5765 5764 5762 5761 5759 5758 5757 5756 5755 5753 5752 5750 5749 5749 5750 5750 5750 5750 5750 5750
5771 5770 5769 5769 5768 5766 5764 5763 5761 5760 5759 5757 5756 5755 5754 5752 5750 5748 5746 5744 5743 5742 5741 5739 5738 5737 5737 5738 5739 5739 5739 5740
5762 5761 5760 5759 5758 5757 5755 5754 5752 5751 5750 5748 5746 5744 5742 5741 5740 5737 5735 5733 5730 5728 5728 5727 5725 5724 5725 5727 5727 5728 5728 5729
5752 5751 5750 5749 5748 5746 5745 5743 5742 5741 5739 5738 5737 5735 5733 5730 5728 5725 5723 5721 5720 5717 5715 5713 5711 5710 5710 5712 5714 5714 5715 5717
5743 5741 5740 5739 5737 5736 5734 5732 5731 5729 5727 5726 5724 5722 5720 5718 5715 5713 5711 5708 5705 5704 5703 5701 5697 5694 5695 5695 5698 5700 5699 5702
5732 5730 5729 5728 5727 5725 5723 5721 5719 5717 5715 5713 5710 5708 5707 5705 5702 5699 5697 5694 5691 5688 5686 5683 5683 5680 5676 5674 5677 5680 5683 5684
5722 5720 5719 5717 5715 5714 5712 5709 5707 5704 5703 5700 5696 5694 5692 5689 5687 5685 5682 5680 5677 5673 5670 5668 5667 5666 5663 5659 5656 5656 5660 5669
5709 5709 5707 5705 5704 5701 5699 5697 5695 5692 5689 5686 5682 5680 5678 5676 5673 5670 5667 5665 5663 5660 5657 5653 5650 5648 5647 5645 5642 5639 5637 5641
5697 5696 5694 5693 5691 5688 5686 5684 5681 5678 5675 5672 5669 5667 5664 5661 5657 5655 5652 5649 5647 5644 5642 5639 5635 5631 5629 5627 5626 5622 5620 5617
5684 5682 5681 5679 5677 5675 5672 5670 5667 5664 5661 5658 5655 5652 5649 5646 5643 5640 5637 5635 5632 5629 5626 5624 5620 5616 5613 5611 5608 5603 5599 5595
5669 5669 5667 5664 5662 5661 5659 5656 5654 5651 5648 5645 5641 5638 5635 5632 5629 5627 5624 5620 5617 5614 5610 5607 5604 5600 5596 5593 5591 5586 5581 5577